Location: Newark
(35.2672°N, 80.7344°W)
Time: 06:43:47
(UTC+00:00)

Vanguard 2 Rocket - Pass Details

Date: 22 January 2020
Orbit: 553 x 3327 km, 32.9° (Epoch: 27 February)

Event Time Altitude Azimuth Distance (km) Brightness Sun altitude
Rises 16:49:43 0° 277° (W) 4,561 10.3 34.0°
Reaches altitude 10° 16:52:31 10° 270° (W) 3,900 10.1 34.2°
Maximum altitude 17:02:27 40° 206° (SSW) 3,122 10.9 34.5°
Drops below altitude 10° 17:17:57 10° 145° (SE) 5,980 12.0 34.9°
Sets 17:23:35 0° 139° (SE) 7,204 12.1 35.0°
